Precipitable_Water
0.43 0.39 0.43 0.47 0.37 0.41 0.41 0.43 0.56 0.76 0.90 1.10 1.13 1.09 1.07 1.18 1.01 0.85 1.63 1.72 1.79 1.71 1.71 1.65 1.64 1.64 1.61 1.54 1.43 1.39 1.39 1.36 1.25 1.19 1.08 0.96 0.85 0.73 0.65 0.63 0.62 0.64 0.63 0.61 0.61 0.62 0.62 0.60 0.61
0.39 0.40 0.43 0.35 0.22 0.26 0.39 0.49 0.64 0.87 1.01 1.11 1.11 1.17 1.11 1.11 1.35 1.43 1.54 1.74 1.78 1.74 1.72 1.66 1.67 1.65 1.59 1.47 1.41 1.41 1.37 1.26 1.15 1.06 0.94 0.79 0.70 0.62 0.61 0.62 0.64 0.63 0.61 0.61 0.61 0.59 0.59 0.59 0.59
0.40 0.47 0.36 0.29 0.20 0.27 0.37 0.61 0.78 0.92 1.02 0.96 0.94 1.13 1.10 1.08 1.35 1.35 1.73 1.72 1.70 1.61 1.69 1.68 1.65 1.58 1.49 1.41 1.40 1.33 1.23 1.12 1.05 0.94 0.79 0.69 0.64 0.60 0.62 0.61 0.58 0.59 0.59 0.59 0.58 0.57 0.55 0.56 0.58
0.41 0.42 0.40 0.26 0.18 0.28 0.44 0.76 0.84 0.93 0.98 1.01 0.97 0.90 1.13 1.40 1.31 1.48 1.65 1.63 1.58 1.61 1.66 1.67 1.59 1.48 1.41 1.38 1.28 1.16 1.09 1.03 0.95 0.79 0.65 0.67 0.62 0.63 0.63 0.57 0.55 0.55 0.55 0.59 0.63 0.64 0.61 0.58 0.56
0.43 0.36 0.29 0.24 0.25 0.32 0.45 0.73 0.91 0.86 0.91 0.88 0.83 0.74 0.96 1.29 1.47 1.52 1.48 1.54 1.50 1.58 1.62 1.59 1.48 1.40 1.32 1.18 1.11 1.05 1.02 0.90 0.75 0.63 0.67 0.67 0.65 0.66 0.59 0.60 0.61 0.63 0.68 0.69 0.69 0.69 0.69 0.67 0.67
0.34 0.30 0.26 0.29 0.35 0.41 0.51 0.73 0.87 0.84 0.88 0.87 0.83 0.87 0.96 1.40 1.35 1.44 1.55 1.52 1.58 1.52 1.51 1.44 1.36 1.17 1.10 1.08 1.04 0.98 0.85 0.72 0.66 0.69 0.69 0.72 0.71 0.69 0.70 0.72 0.70 0.69 0.69 0.69 0.71 0.71 0.69 0.68 0.68
0.34 0.26 0.26 0.36 0.46 0.46 0.60 0.86 0.83 0.80 0.72 0.83 0.94 0.76 0.96 1.13 1.33 1.42 1.49 1.48 1.43 1.39 1.21 1.12 1.12 1.09 1.08 1.01 0.93 0.80 0.74 0.71 0.71 0.73 0.78 0.82 0.78 0.78 0.79 0.78 0.78 0.76 0.76 0.77 0.76 0.76 0.75 0.75 0.74
0.37 0.32 0.34 0.48 0.47 0.54 0.60 0.79 0.85 0.76 0.75 0.90 0.86 0.65 0.66 0.96 1.29 1.22 1.29 1.25 1.11 1.05 1.07 1.04 1.02 0.97 0.89 0.85 0.79 0.74 0.75 0.74 0.78 0.82 0.89 0.87 0.88 0.87 0.88 0.85 0.83 0.84 0.83 0.85 0.86 0.86 0.83 0.81 0.79
0.38 0.29 0.38 0.47 0.53 0.53 0.65 0.67 0.78 0.82 0.75 0.75 0.75 0.74 0.76 0.97 1.11 0.96 0.94 0.91 0.92 0.94 0.90 0.88 0.82 0.82 0.80 0.79 0.77 0.78 0.76 0.78 0.82 0.87 0.92 0.91 0.92 0.90 0.89 0.90 0.89 0.87 0.89 0.90 0.92 0.93 0.92 0.90 0.88
0.36 0.33 0.42 0.51 0.52 0.56 0.60 0.53 0.66 0.67 0.64 0.66 0.65 0.78 0.90 0.91 0.85 0.71 0.68 0.64 0.69 0.68 0.72 0.80 0.79 0.73 0.77 0.78 0.78 0.79 0.82 0.85 0.91 0.96 0.98 0.97 0.96 0.97 0.95 0.91 0.90 0.91 0.93 0.97 0.97 0.95 0.94 0.95 0.93
0.37 0.30 0.41 0.43 0.49 0.52 0.52 0.54 0.63 0.53 0.49 0.50 0.45 0.63 0.78 0.79 0.73 0.61 0.59 0.53 0.50 0.60 0.74 0.74 0.76 0.77 0.75 0.76 0.83 0.84 0.90 0.93 1.01 0.99 1.01 1.03 1.02 1.00 0.94 0.89 0.89 0.90 0.92 0.92 0.91 0.89 0.87 0.87 0.89
0.31 0.34 0.33 0.43 0.49 0.44 0.48 0.45 0.42 0.39 0.39 0.49 0.51 0.59 0.65 0.62 0.60 0.58 0.57 0.50 0.57 0.74 0.81 0.79 0.79 0.82 0.87 0.89 0.91 0.93 0.98 1.03 1.04 1.06 0.99 0.98 0.99 0.95 0.92 0.89 0.85 0.86 0.87 0.85 0.84 0.81 0.80 0.80 0.80
0.30 0.30 0.31 0.37 0.41 0.39 0.35 0.27 0.31 0.28 0.42 0.51 0.56 0.63 0.63 0.66 0.68 0.72 0.66 0.59 0.74 0.81 0.90 0.94 0.88 0.85 0.94 0.98 1.04 1.07 1.10 1.15 1.17 1.17 1.13 1.07 1.04 0.98 0.94 0.90 0.90 0.92 0.90 0.85 0.80 0.76 0.75 0.75 0.73
0.31 0.26 0.26 0.31 0.29 0.24 0.20 0.21 0.19 0.23 0.46 0.46 0.48 0.55 0.64 0.69 0.71 0.73 0.72 0.71 0.80 0.88 0.98 1.06 1.06 0.99 1.00 1.08 1.12 1.19 1.28 1.29 1.29 1.30 1.24 1.18 1.07 1.03 0.97 0.92 0.90 0.87 0.86 0.83 0.78 0.73 0.69 0.68 0.67
0.28 0.23 0.22 0.21 0.22 0.20 0.18 0.14 0.17 0.30 0.46 0.42 0.47 0.55 0.63 0.70 0.76 0.74 0.78 0.79 0.85 0.94 1.01 1.06 1.11 1.11 1.10 1.14 1.22 1.36 1.40 1.37 1.32 1.33 1.27 1.19 1.10 1.00 0.95 0.90 0.89 0.87 0.83 0.78 0.72 0.66 0.61 0.58 0.55
0.24 0.20 0.15 0.20 0.19 0.18 0.17 0.15 0.24 0.43 0.43 0.43 0.49 0.54 0.59 0.67 0.73 0.78 0.81 0.81 0.89 0.96 1.03 1.12 1.19 1.23 1.20 1.32 1.35 1.34 1.27 1.31 1.25 1.18 1.08 1.03 0.98 0.95 0.92 0.88 0.85 0.79 0.71 0.66 0.60 0.58 0.53 0.53 0.48
0.23 0.18 0.19 0.16 0.21 0.21 0.21 0.24 0.33 0.39 0.47 0.43 0.51 0.56 0.60 0.64 0.74 0.81 0.86 0.87 0.90 1.04 1.12 1.15 1.21 1.24 1.26 1.29 1.35 1.27 1.11 1.10 1.07 1.07 1.01 0.97 0.92 0.88 0.81 0.76 0.74 0.71 0.64 0.58 0.54 0.51 0.48 0.44 0.42
0.17 0.18 0.23 0.22 0.25 0.29 0.27 0.29 0.36 0.36 0.46 0.47 0.53 0.59 0.63 0.67 0.73 0.85 0.93 0.98 1.05 1.08 1.15 1.21 1.26 1.31 1.32 1.27 1.21 1.04 0.99 0.99 1.02 0.97 0.89 0.85 0.79 0.77 0.77 0.73 0.64 0.58 0.55 0.53 0.51 0.47 0.46 0.44 0.44
0.21 0.22 0.23 0.25 0.29 0.30 0.33 0.33 0.37 0.40 0.42 0.46 0.52 0.59 0.63 0.69 0.79 0.87 0.93 1.01 1.06 1.16 1.19 1.22 1.22 1.23 1.07 0.98 0.93 0.90 0.90 0.97 0.89 0.83 0.79 0.74 0.72 0.68 0.62 0.59 0.57 0.56 0.53 0.51 0.50 0.47 0.44 0.42 0.46
0.26 0.24 0.26 0.31 0.33 0.31 0.34 0.33 0.39 0.41 0.42 0.45 0.47 0.53 0.59 0.65 0.72 0.78 0.88 0.99 1.07 1.11 1.09 1.04 0.96 0.93 0.92 0.89 0.91 0.89 0.79 0.73 0.71 0.69 0.69 0.67 0.63 0.60 0.56 0.55 0.54 0.52 0.49 0.48 0.47 0.44 0.41 0.43 0.46
0.29 0.25 0.27 0.28 0.33 0.37 0.34 0.31 0.36 0.45 0.50 0.56 0.59 0.63 0.67 0.68 0.72 0.77 0.82 0.86 0.84 0.79 0.74 0.70 0.70 0.70 0.71 0.72 0.71 0.69 0.68 0.69 0.66 0.65 0.62 0.61 0.59 0.58 0.57 0.56 0.55 0.54 0.53 0.50 0.50 0.46 0.41 0.37 0.40
0.29 0.35 0.32 0.32 0.30 0.25 0.34 0.22 0.34 0.43 0.47 0.53 0.59 0.63 0.64 0.65 0.65 0.67 0.65 0.62 0.59 0.59 0.64 0.68 0.68 0.68 0.70 0.72 0.70 0.68 0.65 0.60 0.62 0.60 0.59 0.60 0.61 0.60 0.60 0.59 0.56 0.54 0.54 0.51 0.47 0.44 0.37 0.36 0.30
0.29 0.36 0.34 0.33 0.30 0.29 0.29 0.25 0.30 0.42 0.40 0.48 0.55 0.59 0.60 0.59 0.61 0.62 0.63 0.67 0.68 0.69 0.66 0.68 0.69 0.69 0.69 0.67 0.66 0.64 0.60 0.60 0.60 0.58 0.58 0.58 0.59 0.58 0.55 0.53 0.51 0.47 0.47 0.42 0.41 0.38 0.37 0.35 0.29
0.33 0.34 0.34 0.33 0.30 0.21 0.26 0.24 0.25 0.32 0.38 0.47 0.54 0.57 0.60 0.59 0.62 0.65 0.67 0.70 0.71 0.69 0.68 0.70 0.70 0.68 0.66 0.64 0.64 0.63 0.60 0.58 0.56 0.55 0.53 0.55 0.52 0.51 0.48 0.47 0.46 0.44 0.43 0.41 0.40 0.37 0.33 0.28 0.27
0.30 0.27 0.19 0.19 0.18 0.16 0.27 0.24 0.25 0.38 0.46 0.51 0.53 0.57 0.61 0.62 0.62 0.66 0.72 0.64 0.67 0.67 0.68 0.70 0.69 0.65 0.65 0.65 0.64 0.61 0.59 0.57 0.54 0.53 0.52 0.49 0.45 0.41 0.39 0.42 0.43 0.43 0.39 0.40 0.41 0.35 0.35 0.30 0.28
0.25 0.26 0.20 0.14 0.14 0.17 0.29 0.23 0.29 0.42 0.50 0.54 0.57 0.58 0.60 0.61 0.65 0.70 0.67 0.62 0.65 0.67 0.69 0.71 0.69 0.67 0.67 0.63 0.60 0.58 0.56 0.53 0.50 0.47 0.43 0.40 0.36 0.35 0.38 0.41 0.41 0.40 0.41 0.42 0.38 0.37 0.33 0.31 0.28
0.25 0.23 0.32 0.24 0.28 0.23 0.25 0.29 0.39 0.44 0.45 0.48 0.49 0.52 0.55 0.61 0.64 0.61 0.62 0.63 0.64 0.67 0.69 0.69 0.68 0.64 0.57 0.52 0.47 0.44 0.39 0.33 0.28 0.27 0.26 0.23 0.25 0.30 0.38 0.43 0.43 0.49 0.43 0.45 0.43 0.35 0.29 0.29 0.27
0.28 0.30 0.17 0.19 0.11 0.12 0.18 0.20 0.21 0.29 0.34 0.42 0.44 0.47 0.53 0.58 0.58 0.60 0.60 0.63 0.66 0.68 0.71 0.67 0.64 0.55 0.51 0.48 0.44 0.37 0.33 0.30 0.26 0.23 0.20 0.20 0.24 0.33 0.40 0.42 0.45 0.45 0.43 0.40 0.35 0.30 0.27 0.27 0.28
0.24 0.18 0.17 0.18 0.17 0.10 0.10 0.14 0.29 0.31 0.37 0.40 0.43 0.49 0.53 0.56 0.57 0.59 0.62 0.65 0.66 0.66 0.66 0.64 0.57 0.51 0.50 0.42 0.36 0.34 0.31 0.27 0.24 0.21 0.19 0.22 0.29 0.36 0.39 0.39 0.41 0.37 0.32 0.29 0.27 0.24 0.25 0.25 0.25
0.28 0.20 0.17 0.10 0.10 0.16 0.15 0.12 0.31 0.34 0.39 0.43 0.43 0.48 0.53 0.56 0.58 0.60 0.62 0.63 0.61 0.63 0.58 0.52 0.53 0.51 0.42 0.37 0.35 0.33 0.30 0.28 0.25 0.22 0.22 0.25 0.28 0.33 0.35 0.35 0.36 0.35 0.27 0.26 0.25 0.24 0.24 0.21 0.20
Wind_Speed
13 14 14 13 12 11 13 13 12 11 9 9 8 10 10 10 10 10 9 11 11 11 11 10 9 7 6 5 4 3 2 1 1 1 2 4 5 5 6 7 8 10 10 11 12 12 12 12 12
13 13 12 12 11 10 12 13 10 10 11 10 7 6 6 8 5 7 9 12 12 11 10 10 9 7 6 5 5 4 2 2 1 1 2 3 4 5 6 8 9 10 11 12 12 13 14 14 14
13 12 11 11 10 13 9 10 11 13 8 6 8 9 8 7 7 7 9 12 12 10 10 10 8 7 6 6 5 4 3 2 1 1 2 2 3 5 7 8 9 10 11 12 14 14 15 15 15
12 11 10 10 13 15 9 10 14 11 9 9 6 10 10 8 7 7 11 12 11 10 10 9 8 7 7 6 5 4 3 2 1 1 1 2 4 5 7 8 9 10 12 13 14 15 16 16 16
11 10 9 9 11 14 14 13 12 11 8 9 8 9 11 8 7 9 10 11 11 10 9 8 8 8 8 7 6 4 3 2 1 1 1 3 4 5 6 8 9 11 13 14 15 16 16 16 16
10 9 8 9 9 10 10 11 11 11 8 7 7 6 7 9 9 10 11 11 11 10 9 9 8 8 8 7 5 4 3 3 2 1 2 3 4 5 7 9 11 12 13 14 15 16 16 16 16
10 9 9 9 7 7 10 9 10 8 8 6 5 4 5 8 9 10 11 10 10 9 9 9 8 9 8 7 6 5 4 3 2 2 2 3 4 6 8 10 11 12 13 14 15 16 16 16 17
10 9 10 8 9 8 7 7 9 6 6 6 4 5 7 9 10 10 10 10 10 10 9 8 9 8 8 7 5 4 4 3 2 2 3 4 6 8 10 11 13 13 14 15 17 18 18 18 18
11 7 9 10 10 9 8 8 7 5 5 5 5 5 6 10 10 10 10 10 10 9 9 8 8 8 7 6 5 4 4 4 3 4 5 6 7 10 11 13 14 15 16 17 19 20 20 20 20
9 7 11 10 10 11 11 8 9 6 5 5 5 4 8 10 11 11 10 10 10 10 9 8 7 7 6 5 5 5 4 4 4 5 7 8 9 12 14 15 16 17 18 20 21 22 22 22 22
9 8 10 8 10 10 7 6 6 6 6 5 5 8 10 10 10 11 10 10 10 9 8 8 6 6 6 5 5 6 6 6 6 8 9 11 13 15 16 17 17 19 20 22 23 23 23 23 24
7 7 8 9 10 8 8 6 4 4 4 6 7 9 10 10 11 11 10 9 9 8 8 7 6 5 6 6 7 8 8 9 10 11 12 13 15 17 16 18 19 21 23 23 24 24 24 25 27
8 4 3 8 9 7 7 5 5 6 4 7 7 9 10 11 10 9 8 8 8 7 7 7 6 6 7 8 8 9 10 11 12 14 15 16 17 17 18 19 21 23 24 25 25 25 26 27 28
9 6 4 5 8 7 6 5 6 4 7 7 9 9 10 10 9 7 7 6 7 7 7 7 7 8 10 11 12 13 15 16 15 17 17 18 19 20 19 22 23 25 26 27 28 28 28 29 29
9 4 4 4 7 7 6 4 5 5 8 8 9 7 7 7 6 6 6 7 7 7 7 8 10 11 12 13 14 14 14 17 16 17 18 18 20 21 23 25 27 28 29 29 30 30 31 31 31
5 3 5 6 7 6 6 6 4 5 8 7 6 5 5 5 6 5 5 8 8 9 9 10 11 12 12 14 13 16 16 16 17 16 16 19 22 24 26 28 29 29 29 30 32 32 33 34 35
4 7 5 6 7 7 6 3 4 6 8 6 5 4 4 5 5 6 7 7 9 10 11 12 13 13 16 16 21 16 18 17 16 17 20 23 25 26 29 29 30 30 32 33 34 35 36 37 38
8 9 7 8 6 4 4 2 2 4 7 6 5 4 4 4 6 7 8 8 8 10 11 12 13 14 16 17 17 19 19 18 19 21 23 25 28 31 31 31 31 33 35 36 37 38 40 41 43
9 8 8 6 7 6 4 2 1 3 4 4 4 5 5 5 7 7 8 8 7 8 9 11 12 14 15 17 19 21 22 22 22 24 27 29 30 31 31 32 34 37 38 39 41 42 44 45 47
7 6 4 8 8 7 5 1 2 3 4 4 4 4 4 4 4 5 5 5 5 6 7 9 12 14 18 20 23 24 24 24 25 26 28 29 30 31 32 35 38 39 41 42 44 45 46 47 49
5 7 6 8 8 7 4 2 2 3 2 2 2 3 3 3 3 3 4 4 6 8 10 11 14 16 18 20 21 22 23 24 26 28 29 30 31 34 36 39 41 43 44 45 46 47 48 49 49
6 6 7 9 6 7 6 6 5 6 5 5 5 4 4 3 4 4 3 5 7 10 12 14 16 18 20 21 23 25 26 27 28 29 31 33 35 39 41 42 43 45 46 47 47 48 50 50 51
7 7 9 6 5 6 6 4 8 7 9 9 8 7 6 5 5 5 6 9 12 13 14 15 17 19 21 23 24 25 26 27 29 31 33 37 40 41 43 45 46 46 46 48 49 50 51 52 52
8 6 5 6 7 8 10 7 10 11 11 10 9 9 8 8 8 7 8 11 14 15 16 18 19 20 22 23 25 26 28 29 32 35 37 40 42 45 47 48 47 46 47 48 50 51 51 51 50
6 6 6 7 7 10 8 7 11 12 11 11 11 10 9 9 9 9 12 14 13 16 17 18 19 20 23 24 27 29 31 33 36 39 41 44 47 48 48 46 45 46 48 50 51 52 51 51 51
6 8 7 8 7 8 6 8 8 9 11 12 11 9 9 9 10 11 11 12 14 16 17 19 20 22 26 28 30 32 34 36 39 41 44 47 48 48 48 46 47 48 50 53 53 52 50 49 47
6 4 6 3 5 4 7 7 7 5 7 10 10 8 9 9 9 10 11 13 15 17 18 20 22 24 27 30 31 34 37 39 42 44 46 48 49 49 47 46 47 50 53 52 52 49 48 44 43
5 6 2 3 3 5 5 6 6 5 9 9 8 9 9 10 10 11 13 15 17 18 19 22 24 28 30 32 35 37 40 42 43 45 47 48 48 47 46 46 50 51 51 52 48 44 43 40 37
4 3 1 2 2 3 3 6 6 9 9 9 9 10 10 11 12 14 16 18 19 20 23 25 28 30 32 34 37 39 41 43 45 46 48 48 47 46 46 49 51 50 50 46 42 39 36 35 33
5 4 3 3 5 4 4 8 7 10 11 10 10 11 11 12 14 16 17 19 21 23 26 28 31 32 33 36 38 40 42 44 46 48 49 48 47 47 48 49 50 49 43 39 36 34 31 31 29
Wind_Direction
246 244 243 245 240 244 240 240 238 229 229 222 208 214 215 223 236 235 200 194 193 194 197 203 210 221 228 235 235 236 237 244 271 333 350 358 2 9 10 8 4 2 0 359 356 354 351 349 347
241 236 241 239 232 235 248 237 225 205 197 188 200 223 221 220 215 202 201 202 199 201 204 208 215 220 226 222 217 215 217 213 230 310 339 352 7 9 5 1 359 359 357 354 351 349 346 342 338
231 229 235 224 230 225 236 224 188 192 192 221 222 221 226 228 232 223 206 195 197 202 204 207 211 218 214 204 206 207 199 200 235 298 337 4 6 0 357 355 354 354 352 349 346 343 339 336 334
224 228 234 233 231 231 230 202 199 217 237 238 201 228 242 261 222 215 196 194 199 202 202 207 209 208 197 196 195 188 196 221 246 275 348 356 349 348 351 353 351 349 348 345 343 340 337 333 331
219 223 230 233 237 231 229 211 209 212 243 201 246 246 237 240 227 205 199 197 196 201 205 207 203 196 191 186 186 195 209 207 193 268 329 337 342 348 351 349 347 346 344 344 343 342 340 337 335
216 216 220 227 237 229 214 204 203 216 227 241 257 244 243 219 204 200 195 192 193 196 198 198 195 192 188 192 193 197 194 198 224 265 315 339 344 346 342 341 340 341 342 343 345 344 342 339 337
207 209 219 211 204 198 187 191 191 212 232 239 218 249 234 212 200 196 191 191 191 193 192 193 195 190 193 192 189 197 207 225 241 266 316 333 336 338 338 337 337 337 338 339 341 343 341 338 335
204 208 210 205 204 170 189 196 205 218 215 200 232 248 234 204 190 188 189 190 191 189 192 193 188 189 188 193 200 212 227 233 238 271 304 312 322 327 330 330 331 331 330 330 332 333 333 332 331
202 206 204 187 195 187 176 200 211 214 200 234 269 234 193 176 176 176 181 187 189 190 188 183 184 187 193 200 212 222 221 225 251 277 293 303 313 319 321 321 324 324 323 321 322 322 322 321 324
183 190 197 203 209 200 198 198 198 205 207 254 257 221 174 171 171 171 172 175 178 178 181 183 186 192 199 211 216 220 232 248 268 287 294 296 304 313 316 315 318 318 318 316 316 317 315 314 316
184 191 197 199 198 196 197 188 190 181 234 232 191 175 175 178 179 176 176 175 175 181 184 186 191 198 207 219 230 243 250 253 277 289 296 297 299 306 310 311 312 314 315 316 314 315 314 312 313
180 200 205 198 194 186 175 185 196 205 215 184 164 159 170 176 179 178 179 181 181 186 188 188 197 212 229 243 253 264 258 262 274 289 294 298 304 308 306 307 310 311 312 312 313 312 312 311 312
189 186 178 181 179 177 178 190 203 204 180 164 160 159 162 162 167 173 175 182 180 186 192 207 224 238 251 263 266 266 269 268 277 288 295 296 302 306 305 306 307 310 310 311 312 310 309 309 310
180 169 170 171 179 183 183 198 178 181 167 158 159 161 163 167 172 174 178 187 194 203 215 231 251 259 265 272 276 274 274 276 278 287 294 296 298 303 304 305 306 307 308 308 308 308 307 308 307
176 188 209 197 194 183 162 168 179 173 163 157 165 165 166 176 182 195 204 212 215 230 244 258 266 269 271 278 279 278 282 284 281 288 294 297 299 303 304 307 306 306 306 306 307 307 307 307 306
173 183 179 200 183 182 171 203 184 190 169 169 174 178 178 192 207 224 242 237 243 251 261 269 272 262 269 284 296 286 297 302 295 294 296 301 302 302 305 306 306 306 307 307 306 305 305 305 304
191 189 173 171 167 168 177 188 233 216 187 181 190 194 196 213 240 253 265 263 256 258 265 270 269 274 285 283 299 301 305 303 295 296 299 301 303 304 306 306 306 306 306 306 306 305 305 303 302
212 183 180 175 179 144 146 188 208 197 180 187 195 204 224 246 264 269 272 275 271 265 270 273 275 283 292 295 298 301 306 305 301 300 301 303 304 304 304 304 305 305 304 305 305 305 304 303 302
181 182 200 207 183 164 177 159 235 179 177 191 211 222 244 261 268 269 274 272 276 278 282 282 285 289 293 298 301 302 302 302 301 301 302 303 304 306 306 305 304 305 305 305 305 304 304 303 302
176 179 193 194 198 180 166 151 222 192 206 208 207 222 235 254 284 292 280 275 276 284 294 293 294 295 298 301 302 301 301 300 300 302 304 306 307 307 306 306 305 305 304 305 305 305 305 303 303
187 189 204 177 159 175 188 234 232 215 203 219 239 233 252 262 273 292 294 281 296 298 301 302 303 304 305 307 308 307 306 305 304 304 305 306 307 308 307 307 306 305 305 304 304 304 304 303 301
204 209 185 185 201 211 236 232 233 235 238 252 242 246 255 254 281 295 280 291 308 309 308 308 308 308 308 308 309 308 307 306 305 304 305 306 308 308 307 306 306 305 304 304 304 304 304 303 302
207 200 199 213 222 228 256 254 254 237 248 241 241 244 252 265 276 284 287 297 304 304 306 310 313 310 309 310 311 311 310 309 308 307 307 307 308 308 307 306 305 305 304 304 304 305 304 303 302
206 205 222 236 245 260 253 250 261 243 241 235 239 245 253 263 277 286 292 304 303 306 306 309 310 313 313 313 313 313 312 310 309 308 308 309 309 308 307 306 306 305 305 305 305 305 304 304 303
217 220 252 264 268 256 269 259 262 240 236 228 230 243 256 272 280 287 297 308 301 305 307 308 310 313 315 316 315 314 313 311 310 309 308 308 309 309 309 308 306 306 306 306 306 306 304 304 304
222 216 220 237 249 258 271 263 270 254 228 223 235 251 257 269 280 291 295 305 307 309 309 309 311 312 313 314 315 314 314 313 312 310 309 309 309 309 308 307 307 307 308 306 306 305 304 303 303
215 223 221 214 276 269 263 273 281 244 225 223 231 242 255 272 283 290 299 306 308 310 309 309 309 312 314 315 315 315 315 315 314 313 312 311 310 310 308 308 309 309 310 309 307 305 305 303 303
202 185 222 270 236 268 281 276 262 230 225 226 238 249 261 274 283 290 299 305 310 314 312 313 312 314 314 315 315 316 316 316 316 316 315 315 314 312 310 310 311 311 309 308 307 305 305 305 304
198 212 167 182 230 219 278 277 267 243 233 238 250 260 265 276 284 295 303 307 311 313 315 315 314 315 315 316 316 317 318 319 319 319 318 317 315 313 311 311 311 310 310 309 307 307 306 306 304
206 208 216 229 253 273 262 286 298 274 251 248 260 272 279 282 291 298 302 306 309 312 314 316 315 314 315 316 318 318 319 320 320 320 320 318 316 314 312 311 313 311 310 310 309 310 309 309 308